User: anonymous   Login
Location: Unspecified
(0.0000°N, 0.0000°E)
Time: 06:06:57
(UTC+00:00)
Language:

AEHF 3 (USA 246) - Orbit

View from above orbital plane
View from above orbital plane
View from above satellite
View from above satellite

Ground track
Ground track

The orbit data is extracted from the following two-line orbital elements,

1 39256U 13050A   18147.74524977 0.00000000  00000-0  00000-0 0    03
2 39256   1.9484 305.5990 0006726  58.4991 301.5890  1.00270000    07
Epoch (UTC): 27 May 2018 17:53:09
Eccentricity: 0.0006726
inclination: 1.9484°
perigee height: 35758 km
apogee height: 35815 km
right ascension of ascending node: 305.5990°
argument of perigee: 58.4991°
revolutions per day: 1.00270000
mean anomaly at epoch: 301.5890°
orbit number at epoch: 0

The dashed part of the orbit path shows where the satellite is in the earth's shadow,  

DLR